Location: Acton
(51.4942°N, 0.2232°W)
Time: 19:01:11
(UTC+00:00)

Cosmos 2082 Rocket - Visible Passes

Search period start: 26 January 2021 00:00
Search period end: 05 February 2021 00:00
Orbit: 831 x 855 km, 71.0° (Epoch: 25 January)

Date Brightness Start Highest point End Pass type
(mag) Time Alt. Az. Time Alt. Az. Time Alt. Az.
26 Jan 2.6 18:06:54 10° NNW 18:12:19 41° NE 18:16:35 16° ESE visible
26 Jan 3.1 19:51:04 10° NW 19:56:31 46° WSW 19:58:31 33° SSW visible
27 Jan 2.7 17:52:22 10° NNW 17:57:45 40° NE 18:03:05 10° ESE visible
27 Jan 3.1 19:36:30 10° NW 19:41:59 47° WSW 19:45:48 19° S visible
28 Jan 2.7 17:37:48 10° NNW 17:43:11 39° NE 17:48:29 10° ESE visible
28 Jan 3.1 19:21:56 10° NW 19:27:27 49° WSW 19:32:53 10° S visible
29 Jan 2.8 17:23:16 10° NNW 17:28:36 38° NE 17:33:53 10° ESE visible
29 Jan 3.0 19:07:22 10° NW 19:12:54 51° WSW 19:18:21 10° S visible
30 Jan 3.0 18:52:47 10° NW 18:58:21 53° WSW 19:03:51 10° S visible
31 Jan 3.0 18:38:14 10° NW 18:43:49 55° WSW 18:49:20 10° S visible
01 Feb 2.9 18:23:39 10° NW 18:29:15 57° WSW 18:34:48 10° S visible
02 Feb 2.9 18:09:06 10° NW 18:14:43 59° WSW 18:20:17 10° S visible
02 Feb 5.4 19:56:40 10° W 19:57:34 10° W 19:58:29 10° WSW visible
03 Feb 2.9 17:54:31 10° NW 18:00:10 61° WSW 18:05:45 10° SSE visible
03 Feb 5.4 19:41:39 10° W 19:43:04 11° W 19:44:28 10° WSW visible
04 Feb 2.8 17:39:57 10° NW 17:45:37 63° WSW 17:51:13 10° SSE visible
04 Feb 5.5 19:26:48 10° WNW 19:28:33 11° W 19:30:18 10° WSW visible
